Theta_e
331 339 345 348 350 351 360 362 359 368 359 353 350 347 344 346 346 345 346 345 343 342 341 336 334 331 333 333 331 327 325 321 320 314 315 316 320 321 320 321 320 319 318
328 337 345 349 349 352 352 358 362 368 364 356 356 351 347 346 346 345 344 344 342 339 337 335 332 336 331 331 328 327 321 318 317 312 313 309 312 317 318 317 318 319 318
329 341 345 349 351 351 351 353 357 362 362 361 354 352 351 348 344 343 341 341 338 335 335 336 333 332 329 325 325 322 320 313 315 319 312 307 306 309 314 317 315 317 316
332 342 344 346 350 350 353 354 356 357 357 357 356 355 345 342 343 343 342 337 336 336 333 332 329 327 324 322 320 317 318 317 313 315 315 317 313 306 304 311 313 314 314
331 334 341 344 347 350 351 353 355 355 355 355 355 349 351 345 344 342 339 340 336 333 328 325 324 322 320 321 320 320 320 317 314 312 310 313 310 312 307 304 307 311 312
332 336 341 345 346 348 349 351 352 352 353 352 352 352 351 347 341 338 336 333 331 327 326 321 322 321 321 320 319 320 319 317 315 313 312 310 308 307 307 305 306 305 308
332 336 340 342 343 344 347 348 349 346 348 349 350 348 347 345 343 338 333 330 324 324 325 323 321 319 320 319 320 319 317 316 314 315 312 312 311 311 309 306 303 303 306
329 333 340 340 341 344 346 346 347 341 343 343 343 344 344 341 337 334 328 326 325 324 323 321 320 319 319 319 319 316 315 317 315 316 316 312 312 311 310 307 304 300 303
330 334 339 340 341 344 345 345 345 343 341 341 341 341 338 336 330 330 329 324 325 322 320 319 319 319 319 318 319 316 317 317 317 317 318 315 312 312 312 310 308 301 298
332 335 338 341 342 344 345 345 345 341 340 339 338 334 331 330 329 327 325 324 325 322 319 319 319 319 318 318 319 317 318 318 315 314 316 315 314 314 312 310 309 308 301
332 336 339 340 342 343 341 342 341 339 337 336 333 330 328 328 327 326 325 324 323 322 320 319 318 318 317 318 318 318 316 315 317 318 314 313 315 311 311 310 309 306 303
333 337 339 339 341 340 340 339 338 335 334 332 329 328 328 327 327 326 325 324 322 321 320 319 318 317 317 317 316 315 315 314 314 313 312 311 309 310 310 307 306 304 306
333 335 338 338 340 339 338 337 336 333 331 329 328 328 326 326 327 326 325 324 322 321 320 318 317 316 315 314 315 315 314 315 314 313 311 310 309 307 307 305 304 305 306
330 335 337 337 340 339 337 335 333 332 330 328 327 326 326 327 327 325 324 323 322 320 319 318 316 316 314 314 315 314 314 313 313 314 312 310 308 305 307 304 304 305 303
328 336 336 338 339 338 336 334 332 331 329 326 325 327 328 328 326 324 322 322 321 319 318 317 316 315 315 313 313 314 313 312 313 314 311 311 310 306 305 303 302 303 301
325 332 338 338 338 337 335 333 331 329 329 326 326 328 327 326 324 323 322 322 320 319 318 316 315 315 314 307 308 308 313 312 311 311 310 311 309 308 304 303 303 304 300
323 332 337 340 340 338 336 332 330 329 327 327 327 326 326 323 322 322 320 317 318 319 317 317 317 316 316 308 306 304 310 310 310 311 310 309 307 307 305 304 304 304 304
327 330 336 342 341 338 335 332 330 328 327 327 325 325 323 321 320 319 317 319 320 319 317 316 316 316 315 306 303 302 309 309 311 311 310 309 308 307 304 303 302 302 303
334 335 338 342 341 337 333 331 328 327 326 326 325 323 322 319 318 316 317 319 319 318 316 316 315 315 315 303 303 302 309 307 307 307 306 304 304 302 300 301 300 300 302
335 337 339 342 339 333 333 329 327 327 326 326 324 322 320 318 315 317 318 319 318 316 313 314 316 313 315 301 303 303 307 306 305 307 305 302 301 298 297 298 298 297 299
334 337 338 338 333 329 332 329 328 326 328 326 323 321 319 316 319 318 318 316 315 315 315 315 316 316 315 312 302 299 305 302 302 301 301 302 298 296 295 295 296 297 299
333 333 335 332 330 329 331 328 327 329 326 323 320 317 317 317 315 316 315 315 315 314 315 316 314 311 314 307 301 298 297 299 300 300 301 301 295 294 294 295 295 295 296
332 334 329 328 329 330 331 328 327 325 323 320 317 317 316 316 315 314 315 313 315 312 310 307 306 307 307 308 299 297 297 298 299 300 297 295 294 294 296 296 296 296 296
330 330 327 325 326 328 329 327 324 323 320 317 316 317 316 314 315 314 313 311 310 309 308 306 305 305 306 306 304 301 301 298 297 295 294 295 295 296 296 297 296 297 297
328 327 325 325 324 325 323 321 320 320 317 316 316 316 315 315 314 315 313 311 314 307 306 306 306 305 303 299 295 294 295 294 294 293 295 294 294 293 293 294 294 295 295
326 324 324 324 321 321 318 317 319 318 317 314 314 312 312 311 311 311 311 300 299 299 296 294 297 304 295 293 292 292 292 291 291 294 294 292 291 291 291 291 292 292 292
Wind_Speed
17 18 16 15 15 14 14 13 13 12 9 10 9 9 8 7 6 5 6 6 5 6 3 4 3 4 8 4 6 7 9 9 10 9 10 10 13 7 6 8 10 8 10
14 14 16 13 11 12 13 12 11 11 10 9 7 7 7 7 6 6 5 6 6 5 4 3 6 4 6 7 6 5 8 9 8 9 9 9 10 5 5 10 8 10 5
15 13 13 14 14 14 14 13 12 11 11 9 6 4 4 4 6 7 6 6 5 5 5 5 3 4 5 7 6 7 8 9 9 8 8 10 9 12 11 12 9 8 9
10 17 15 14 14 13 11 10 11 11 10 11 9 10 9 8 7 8 6 7 6 5 4 3 3 4 5 6 6 5 7 8 9 8 8 8 9 11 12 9 10 10 9
9 11 14 14 12 11 9 9 10 12 11 11 10 10 9 7 6 5 8 4 4 3 3 2 3 4 5 5 6 6 6 8 7 9 9 9 9 9 10 12 11 11 11
6 5 8 7 8 9 10 10 11 11 11 12 10 11 8 8 7 7 7 7 6 6 3 3 2 4 5 5 5 5 7 7 6 7 8 9 9 9 10 11 12 14 12
7 9 11 8 11 14 13 12 12 10 9 8 7 6 8 8 8 8 6 4 4 4 6 1 3 4 5 5 5 6 6 7 5 8 8 9 10 10 10 9 10 13 13
8 10 13 9 12 13 13 13 13 10 8 9 9 8 10 7 7 5 5 4 1 2 3 3 3 4 5 5 5 7 7 6 6 9 8 7 11 10 10 8 10 10 14
6 7 12 11 12 13 13 12 13 13 11 11 9 9 8 7 6 7 4 4 1 3 4 3 4 5 5 6 7 8 7 7 8 8 11 7 11 12 10 10 7 9 11
5 7 9 11 12 12 11 11 12 12 11 11 10 9 9 7 7 6 4 3 2 2 3 4 5 5 7 7 7 8 8 6 7 7 8 9 10 10 8 8 9 9 8
4 8 10 11 12 12 13 11 11 13 12 12 10 10 9 9 7 6 5 4 4 4 5 5 6 7 8 8 8 10 11 12 7 5 6 9 8 11 11 9 8 7 6
3 9 12 13 13 13 13 13 12 13 13 12 12 11 9 8 7 5 5 4 5 5 5 6 7 8 9 9 10 11 11 11 6 6 6 11 9 10 9 7 9 9 8
5 8 12 13 14 14 13 14 13 13 13 12 11 9 8 8 7 5 5 5 5 5 6 7 8 9 9 9 10 11 12 10 6 7 7 7 6 8 10 8 7 9 7
5 9 10 13 15 14 14 13 13 12 11 11 11 9 8 8 7 6 5 5 5 5 7 7 9 9 10 10 11 12 10 12 10 8 5 5 5 9 12 8 9 8 7
6 11 12 14 15 14 13 13 13 12 11 9 8 9 8 7 6 5 5 4 5 5 7 8 9 9 9 9 7 10 12 14 13 10 10 9 11 10 7 7 10 9 8
9 10 14 14 14 15 14 13 13 12 11 11 10 9 8 7 6 6 5 5 5 6 7 9 9 9 9 7 4 5 11 13 13 14 10 9 13 10 2 10 16 14 10
14 11 14 14 14 14 14 14 13 13 12 11 10 9 8 7 6 5 4 4 5 6 8 9 9 10 11 6 4 0 8 10 13 13 12 11 10 8 9 10 13 13 14
12 4 10 13 14 14 14 13 14 13 12 10 9 8 7 6 4 4 3 4 5 7 8 9 10 10 9 8 6 1 9 12 12 12 11 11 12 8 8 9 11 11 9
14 12 6 12 13 13 14 14 14 13 12 11 9 7 6 5 4 3 4 5 6 7 8 9 10 11 10 11 8 4 9 11 13 12 15 12 13 12 9 9 9 12 10
12 8 3 10 12 13 13 13 13 13 10 10 7 6 5 3 2 3 4 5 7 8 7 10 10 10 11 13 11 8 8 12 12 12 8 10 7 6 8 7 8 11 12
10 8 4 11 12 13 13 13 12 11 8 7 7 6 4 3 0 2 4 5 7 8 9 10 10 11 9 3 13 6 7 10 12 13 10 7 6 7 10 11 10 12 10
10 3 11 11 11 12 12 13 11 8 8 7 7 6 4 2 3 3 5 6 7 9 10 9 9 7 9 3 11 8 6 10 13 14 10 9 14 16 19 14 14 14 11
8 6 13 12 8 10 9 11 9 8 7 7 5 4 3 1 2 4 5 6 7 8 9 10 11 10 10 10 12 4 13 19 14 10 12 17 17 16 11 11 10 8 4
3 2 14 12 10 8 9 9 10 11 8 6 4 3 1 3 3 5 6 6 8 8 9 11 11 11 11 11 12 14 13 14 12 14 11 14 15 12 9 7 5 4 3
5 10 11 10 10 11 12 9 6 6 8 5 2 1 3 3 4 6 4 6 6 4 7 8 8 10 11 12 12 10 10 8 10 12 8 6 6 6 6 5 5 4 4
7 9 8 8 12 12 13 10 7 6 8 4 3 2 5 4 4 5 6 3 3 5 5 6 4 7 14 14 10 10 15 17 14 9 7 6 6 7 6 5 5 4 4
Wind_Direction
191 186 190 197 192 197 188 202 196 184 208 199 199 208 205 205 193 192 107 157 189 206 206 234 222 249 242 334 293 293 306 311 305 308 303 311 283 200 269 289 292 334 308
183 169 175 185 203 199 200 203 209 192 196 202 208 215 202 188 195 152 180 202 189 174 224 273 232 276 305 293 286 313 307 302 306 311 313 320 303 129 319 311 309 267 298
172 151 169 190 202 207 199 199 201 192 192 212 189 175 159 155 171 153 182 183 182 190 212 228 281 301 280 294 357 304 303 301 309 306 305 307 313 321 312 313 317 315 279
191 172 189 198 201 201 196 195 189 183 189 196 174 190 180 187 196 177 158 144 200 205 205 248 284 312 321 308 293 308 327 288 310 305 301 316 316 299 306 310 314 307 309
198 194 176 189 190 197 172 175 173 175 173 175 181 178 212 168 163 141 130 192 156 190 219 274 326 310 289 344 300 295 317 306 308 323 324 318 292 305 308 311 311 323 328
171 186 175 145 174 182 174 165 167 165 163 176 176 203 181 145 161 170 173 179 175 172 163 318 304 315 310 294 316 324 286 328 317 303 301 308 314 312 312 308 317 320 313
226 179 165 181 189 187 166 162 162 157 161 164 153 144 148 170 166 168 199 160 179 195 138 251 284 314 336 303 305 311 304 269 299 297 317 309 313 308 307 325 323 305 311
225 187 159 196 191 172 170 164 151 142 149 146 149 152 154 162 157 204 129 196 189 150 110 257 278 289 284 290 295 280 280 313 291 296 269 284 288 304 311 311 304 303 303
264 201 159 192 196 170 168 165 162 156 163 161 157 153 159 155 123 125 169 149 88 155 188 239 274 280 279 284 287 270 291 281 275 308 287 290 330 312 314 314 308 290 303
251 197 175 188 194 167 153 173 164 158 161 159 156 152 149 146 145 150 190 143 113 234 244 239 253 274 280 279 278 280 286 296 287 271 283 287 296 290 292 299 304 296 295
195 194 174 179 192 162 174 168 168 162 163 164 162 154 158 153 157 157 172 187 204 228 239 254 269 275 280 281 283 281 277 276 294 320 295 291 312 313 318 299 295 300 292
187 185 175 180 189 174 172 172 172 170 170 168 164 162 160 160 161 178 184 199 229 243 264 273 277 281 284 289 281 281 293 295 323 317 307 314 330 319 306 303 302 295 287
169 196 177 176 193 179 180 178 178 179 172 166 165 160 163 169 173 184 195 209 240 266 283 296 290 289 290 287 279 285 290 298 303 295 296 316 313 301 302 301 297 285 293
163 207 184 193 192 184 186 184 184 179 164 170 162 167 171 182 179 190 195 219 251 281 290 291 291 291 289 290 293 284 309 312 298 288 304 306 285 290 317 291 286 295 313
235 195 205 199 191 189 180 183 181 167 163 169 166 174 176 184 187 198 215 240 265 286 293 291 294 294 288 277 336 317 309 302 294 300 301 288 302 305 300 298 300 302 302
224 214 199 200 195 188 185 181 176 165 164 177 178 178 174 183 192 210 225 247 273 285 302 297 294 295 289 130 176 316 309 299 296 296 305 304 297 289 254 275 278 278 284
289 189 203 196 197 181 184 177 168 162 176 174 180 176 181 194 189 211 236 277 289 303 295 291 289 295 300 165 142 31 307 299 297 294 290 294 291 286 291 282 269 267 256
319 258 197 185 188 174 177 168 167 169 178 184 176 179 181 193 190 221 267 277 283 290 294 294 298 302 306 113 105 89 299 296 302 318 318 311 303 283 279 276 286 286 284
339 319 186 177 175 159 162 165 171 176 173 178 176 180 180 179 201 256 296 303 295 298 296 292 298 304 316 140 154 239 308 314 317 320 325 335 319 304 236 246 265 283 281
338 331 173 165 146 136 154 166 177 177 184 170 160 163 156 186 235 331 312 311 299 284 298 316 307 306 289 168 175 217 307 317 317 320 317 298 321 354 326 264 268 277 281
344 332 209 133 128 131 149 180 177 178 168 149 155 146 150 173 37 316 292 298 296 311 299 297 297 283 280 123 187 176 329 339 325 319 316 311 323 344 310 279 275 274 293
336 287 95 107 121 137 159 176 170 140 146 160 147 142 166 300 40 318 298 304 298 281 278 284 291 323 354 333 154 183 236 329 331 317 311 326 342 320 299 296 277 257 265
339 302 117 113 130 152 165 165 129 138 166 155 138 151 140 44 323 286 294 284 276 294 321 331 330 340 346 343 143 193 353 348 330 338 341 324 305 292 290 296 306 278 235
316 123 127 130 158 152 163 124 147 149 152 135 147 140 210 3 301 310 300 329 328 339 338 334 334 339 338 349 356 344 335 339 342 323 308 298 291 287 299 302 300 292 251
82 123 145 143 143 121 123 129 126 147 120 119 118 287 208 218 287 261 324 314 327 349 324 327 337 344 346 12 357 349 341 327 316 313 303 313 325 324 329 331 322 331 292
140 139 143 151 133 141 133 134 145 123 113 123 192 33 320 324 323 325 335 198 234 191 225 50 21 24 44 358 341 346 340 328 321 315 328 333 335 333 332 326 329 329 327